Location: Alpha Ridge Park
(39.3209°N, 76.9128°W)
Time: 22:49:25
(UTC-04:00)

Transit 2A - Pass Details

Date: 26 May 2019
Orbit: 593 x 966 km, 66.7° (Epoch: 16 June)

Event Time Altitude Azimuth Distance (km) Brightness Sun altitude
Rises 06:25:51 0° 170° (S) 3,508 9.3 6.1°
Reaches altitude 10° 06:28:44 10° 157° (SSE) 2,616 8.8 6.6°
Maximum altitude 06:33:35 25° 105° (ESE) 1,835 8.9 7.5°
Drops below altitude 10° 06:38:33 10° 54° (NE) 2,707 10.8 8.4°
Sets 06:41:35 0° 42° (NE) 3,657 10.7 9.0°
